Notices

What's New in latest Release from April 7th, 2021:

- Updated Glossary, including Speed of Maximum Gust, and Total Hourly Precipitation

- Updated national and regional climate services offices contacts and prices information

- Addition of station inventory lists for 1981-2010, 1971-2000, and 1961-1990 Normals.

If you haven't already, please take our survey and provide feedback about our website: https://eccc.sondage-survey.ca/f/LanguageSelection.aspx?s=442ca660-fcf1-47c0-95a9-59707d6fd709

Hourly Data Report for April 14, 2021

ALGONQUIN PARK EAST GATE
ONTARIO
Current Station Operator: ECCC - MSC

45°32'00.000" N
78°16'00.000" W
397.00 m
6080192
71581
TNK

Download Data

Hourly Data (April 2021)
Hourly Data Report for April 14, 2021
TIME
LST
Temp Definition
°C
Dew Point Definition
°C
Rel Hum Definition
%
Precip. Amount Definition
mm

Wind Dir Definition
10's deg

Wind Spd Definition
km/h
Visibility Definition
km
Stn Press Definition
kPa
Hmdx Definition


Wind Chill Definition


Weather Definition


00:00 4.2 3.5 95 0.0   0   97.03     LegendNANA
01:00 4.3 3.6 95 0.0 0 1   97.04     LegendNANA
02:00 4.0 3.3 95 0.0   0   96.99     LegendNANA
03:00 3.7 3.0 95 0.0   0   97.00     LegendNANA
04:00 3.5 2.8 95 0.0 0 1   97.00     LegendNANA
05:00 3.4 2.8 95 0.0   0   97.02     LegendNANA
06:00 3.4 2.8 95 0.0   0   97.03     LegendNANA
07:00 3.9 3.2 95 0.0 8 2   97.03     LegendNANA
08:00 5.2 4.5 95 0.2 26 2   96.95     LegendNANA
09:00 7.3 6.4 94 0.0 2 1   96.91     LegendNANA
10:00 10.6 4.7 67 0.0 11 6   96.87     LegendNANA
11:00 12.6 -1.7 37 0.0 11 9   96.79     LegendNANA
12:00 14.4 -3.5 29 0.0 16 9   96.70     LegendNANA
13:00 15.9 0.6 35 0.0 18 5   96.62     LegendNANA
14:00 14.1 -0.7 36 0.0 19 3   96.54     LegendNANA
15:00 14.4 -1.3 34 0.0 20 3   96.45     LegendNANA
16:00 14.6 -1.0 34 0.0 15 5   96.37     LegendNANA
17:00 11.4 4.2 61 0.0 25 5   96.41     LegendNANA
18:00 9.6 4.8 72 0.0 21 2   96.38     LegendNANA
19:00 7.8 5.1 83 0.5 26 3   96.36     LegendNANA
20:00 7.1 4.8 85 0.0 27 3   96.45     LegendNANA
21:00 5.7 4.1 89 1.4 27 4   96.39     LegendNANA
22:00 5.3 3.4 88 0.0 34 3   96.38     LegendNANA
23:00 4.6 2.9 89 0.0 34 3   96.30     LegendNANA

Notes on Data Quality.

Legend

  • E = Estimated
  • M = Missing
  • NA = Not Available*
  • [empty] = Indicates an unobserved value
Date modified: